EA3BIN-13 Weather Reports


Display with metric or nautical units.
time (UTC)temp
F
wind
direction
speed
MPH
gust
MPH
rain 1hr
in
rain 24hr
in
rain mn
in
humidity
%
barometer
mb
20260506141924 83 0.0 0.0 0.00 0.00 0.00 29 1008.8
20260506140919 72 0.0 0.0 0.00 0.00 0.00 36 1010.0
20260506135919 72 0.0 0.0 0.00 0.00 0.00 37 1010.1
20260506134919 70 0.0 0.0 0.00 0.00 0.00 46 1010.4
20260506133918 70 0.0 0.0 0.00 0.00 0.00 47 1010.4
20260506132919 73 0.0 0.0 0.00 0.00 0.00 39 1010.1
20260506131918 71 0.0 0.0 0.00 0.00 0.00 38 1010.5
20260506130921 73 0.0 0.0 0.00 0.00 0.00 45 1010.3
20260506125919 75 0.0 0.0 0.00 0.00 0.00 35 1010.2
20260506124919 75 0.0 0.0 0.00 0.00 0.00 42 1010.3
20260506123919 74 0.0 0.0 0.00 0.00 0.00 39 1010.5
20260506122919 71 0.0 0.0 0.00 0.00 0.00 47 1010.8
20260506121918 71 0.0 0.0 0.00 0.00 0.00 38 1010.8
20260506120918 71 0.0 0.0 0.00 0.00 0.00 45 1010.9
20260506115924 71 0.0 0.0 0.00 0.00 0.00 41 1010.9
20260506114924 70 0.0 0.0 0.00 0.00 0.00 47 1010.9
20260506113919 70 0.0 0.0 0.00 0.00 0.00 54 1011.1
20260506112918 67 0.0 0.0 0.00 0.00 0.00 55 1011.5
20260506111924 68 0.0 0.0 0.00 0.00 0.00 56 1011.5
20260506110919 67 0.0 0.0 0.00 0.00 0.00 56 1011.8
20260506105919 66 0.0 0.0 0.00 0.00 0.00 55 1011.9
20260506104918 66 0.0 0.0 0.00 0.00 0.00 56 1011.9
20260506103919 66 0.0 0.0 0.00 0.00 0.00 59 1012.1
20260506102918 65 0.0 0.0 0.00 0.00 0.00 64 1012.2
20260506101918 65 0.0 0.0 0.00 0.00 0.00 66 1012.3
20260506100924 64 0.0 0.0 0.00 0.00 0.00 68 1012.3
20260506095924 63 0.0 0.0 0.00 0.00 0.00 74 1012.5
20260506094929 62 0.0 0.0 0.00 0.00 0.00 80 1013.0
20260506093919 62 0.0 0.0 0.00 0.00 0.00 77 1012.9
20260506092919 61 0.0 0.0 0.00 0.00 0.00 82 1013.0
20260506091924 61 0.0 0.0 0.00 0.00 0.00 83 1013.1
20260506090919 60 0.0 0.0 0.00 0.00 0.00 86 1013.0
20260506085918 59 0.0 0.0 0.00 0.00 0.00 88 1013.1
20260506084924 59 0.0 0.0 0.00 0.00 0.00 89 1013.2
20260506083918 57 0.0 0.0 0.00 0.00 0.00 98 1013.2
20260506082924 58 0.0 0.0 0.00 0.00 0.00 10 1013.2
20260506081919 57 0.0 0.0 0.00 0.00 0.00 10 1013.1
20260506080918 56 0.0 0.0 0.00 0.00 0.00 10 1013.0
20260506072919 53 0.0 0.0 0.00 0.00 0.00 10 1013.4
20260506071919 52 0.0 0.0 0.00 0.00 0.00 10 1013.5
20260506070929 52 0.0 0.0 0.00 0.00 0.00 10 1013.5
20260506061919 49 0.0 0.0 0.00 0.00 0.00 10 1013.6
20260506060918 49 0.0 0.0 0.00 0.00 0.00 10 1013.6
20260506050924 48 0.0 0.0 0.00 0.00 0.00 10 1013.1
20260506044919 48 0.0 0.0 0.00 0.00 0.00 10 1013.0
20260506043919 48 0.0 0.0 0.00 0.00 0.00 10 1013.0
20260506042918 48 0.0 0.0 0.00 0.00 0.00 10 1012.9
20260506041919 48 0.0 0.0 0.00 0.00 0.00 10 1012.9
20260506040919 49 0.0 0.0 0.00 0.00 0.00 10 1012.6
20260506035919 49 0.0 0.0 0.00 0.00 0.00 10 1012.5
20260506034919 49 0.0 0.0 0.00 0.00 0.00 10 1012.6
20260506033919 49 0.0 0.0 0.00 0.00 0.00 10 1012.6
20260506032924 48 0.0 0.0 0.00 0.00 0.00 10 1012.5
20260506031919 48 0.0 0.0 0.00 0.00 0.00 10 1012.6
20260506030919 48 0.0 0.0 0.00 0.00 0.00 10 1012.5
20260506025919 48 0.0 0.0 0.00 0.00 0.00 10 1012.5
20260506024919 49 0.0 0.0 0.00 0.00 0.00 10 1012.5
20260506023918 49 0.0 0.0 0.00 0.00 0.00 10 1012.3
20260506022919 50 0.0 0.0 0.00 0.00 0.00 10 1012.3
20260506021919 50 0.0 0.0 0.00 0.00 0.00 10 1012.3
20260506020924 50 0.0 0.0 0.00 0.00 0.00 10 1012.2
20260506015919 51 0.0 0.0 0.00 0.00 0.00 10 1012.1
20260506014919 51 0.0 0.0 0.00 0.00 0.00 10 1012.0
20260506013919 51 0.0 0.0 0.00 0.00 0.00 10 1011.9
20260506012919 50 0.0 0.0 0.00 0.00 0.00 10 1011.9
20260506011924 50 0.0 0.0 0.00 0.00 0.00 10 1012.1
20260506010924 49 0.0 0.0 0.00 0.00 0.00 10 1012.2
20260506005919 48 0.0 0.0 0.00 0.00 0.00 10 1012.5
20260506004919 48 0.0 0.0 0.00 0.00 0.00 10 1012.6
20260506003919 48 0.0 0.0 0.00 0.00 0.00 10 1012.7
20260506002924 48 0.0 0.0 0.00 0.00 0.00 10 1012.8
20260506001924 48 0.0 0.0 0.00 0.00 0.00 10 1012.8
20260506000919 48 0.0 0.0 0.00 0.00 0.00 10 1012.7
20260505235924 48 0.0 0.0 0.00 0.00 0.00 10 1012.8
20260505234919 49 0.0 0.0 0.00 0.00 0.00 10 1012.6
20260505233919 49 0.0 0.0 0.00 0.00 0.00 10 1012.7
20260505232919 49 0.0 0.0 0.00 0.00 0.00 10 1012.7
20260505231919 49 0.0 0.0 0.00 0.00 0.00 10 1012.6
20260505230919 49 0.0 0.0 0.00 0.00 0.00 10 1012.6
20260505225919 49 0.0 0.0 0.00 0.00 0.00 10 1012.6
20260505224919 50 0.0 0.0 0.00 0.00 0.00 10 1012.3
20260505223919 51 0.0 0.0 0.00 0.00 0.00 10 1012.4
20260505222919 50 0.0 0.0 0.00 0.00 0.00 10 1012.7
20260505221919 50 0.0 0.0 0.00 0.00 0.00 10 1012.7
20260505220929 51 0.0 0.0 0.00 0.00 0.00 10 1012.8
20260505215919 51 0.0 0.0 0.00 0.00 0.00 10 1013.0
20260505214919 50 0.0 0.0 0.00 0.00 0.00 10 1013.1
20260505213919 51 0.0 0.0 0.00 0.00 0.00 10 1013.1
20260505212919 51 0.0 0.0 0.00 0.00 0.00 10 1012.8
20260505211919 51 0.0 0.0 0.00 0.00 0.00 10 1012.9
20260505210919 51 0.0 0.0 0.00 0.00 0.00 10 1012.9
20260505205919 51 0.0 0.0 0.00 0.00 0.00 10 1012.7
20260505204919 51 0.0 0.0 0.00 0.00 0.00 10 1012.8
20260505203919 51 0.0 0.0 0.00 0.00 0.00 10 1012.7
20260505202919 51 0.0 0.0 0.00 0.00 0.00 10 1012.4
20260505201920 51 0.0 0.0 0.00 0.00 0.00 10 1012.3
20260505200919 51 0.0 0.0 0.00 0.00 0.00 10 1012.2
20260505195919 51 0.0 0.0 0.00 0.00 0.00 10 1012.1
20260505194919 51 0.0 0.0 0.00 0.00 0.00 10 1011.9
20260505193919 51 0.0 0.0 0.00 0.00 0.00 10 1011.7
20260505192919 52 0.0 0.0 0.00 0.00 0.00 10 1011.6
20260505191919 52 0.0 0.0 0.00 0.00 0.00 10 1011.5
20260505190919 52 0.0 0.0 0.00 0.00 0.00 10 1011.3
20260505185919 53 0.0 0.0 0.00 0.00 0.00 10 1011.4
20260505184919 53 0.0 0.0 0.00 0.00 0.00 10 1011.5
20260505183919 53 0.0 0.0 0.00 0.00 0.00 10 1011.5
20260505182919 54 0.0 0.0 0.00 0.00 0.00 10 1011.2
20260505181919 55 0.0 0.0 0.00 0.00 0.00 10 1011.1
20260505180919 53 0.0 0.0 0.00 0.00 0.00 10 1011.2
20260505175924 53 0.0 0.0 0.00 0.00 0.00 10 1011.3
20260505174924 53 0.0 0.0 0.00 0.00 0.00 10 1011.3
20260505173919 52 0.0 0.0 0.00 0.00 0.00 10 1011.4
20260505172919 52 0.0 0.0 0.00 0.00 0.00 10 1011.4
20260505171919 52 0.0 0.0 0.00 0.00 0.00 10 1011.4
20260505170919 52 0.0 0.0 0.00 0.00 0.00 10 1011.5
20260505165919 52 0.0 0.0 0.00 0.00 0.00 10 1011.4
20260505164919 52 0.0 0.0 0.00 0.00 0.00 10 1011.4
20260505163919 52 0.0 0.0 0.00 0.00 0.00 10 1011.5
20260505162919 53 0.0 0.0 0.00 0.00 0.00 10 1011.8
20260505161919 53 0.0 0.0 0.00 0.00 0.00 10 1011.7
20260505160919 53 0.0 0.0 0.00 0.00 0.00 10 1011.7
20260505152924 57 0.0 0.0 0.00 0.00 0.00 10 1010.9
20260505151919 57 0.0 0.0 0.00 0.00 0.00 10 1010.6
20260505150919 60 0.0 0.0 0.00 0.00 0.00 77 1010.4